LRFT Weather Reports


time (UTC)temp
C
wind
direction
speed
KPH
gust
KPH
rain 1hr
cm
rain 24hr
cm
rain mn
cm
humidity
%
barometer
mb
20260905201859 23 250 11.3 0.0 0.00 0.00 0.00 41 1014.0
20260905200522 -17 0.0 0.0 0.00 0.00 0.00
20260905195015 -17 0.0 0.0 0.00 0.00 0.00
20260905193400 27 250 14.5 0.0 0.00 0.00 0.00 34 1014.0
20260905191929 27 250 14.5 0.0 0.00 0.00 0.00 34 1014.0
20260905190401 -17 0.0 0.0 0.00 0.00 0.00
20260905184857 27 240 14.5 0.0 0.00 0.00 0.00 32 1014.0
20260905183405 27 240 14.5 0.0 0.00 0.00 0.00 32 1014.0
20260905181857 27 240 14.5 0.0 0.00 0.00 0.00 32 1014.0
20260905180356 27 240 14.5 0.0 0.00 0.00 0.00 32 1014.0
20260905174853 28 240 12.9 0.0 0.00 0.00 0.00 33 1014.0
20260905173359 28 240 12.9 0.0 0.00 0.00 0.00 33 1014.0
20260905171901 28 240 12.9 0.0 0.00 0.00 0.00 33 1014.0
20260905170400 28 240 12.9 0.0 0.00 0.00 0.00 33 1014.0
20260905164900 32 270 22.5 0.0 0.00 0.00 0.00 27 1014.0
20260905163401 32 270 22.5 0.0 0.00 0.00 0.00 27 1014.0
20260905161858 32 270 22.5 0.0 0.00 0.00 0.00 27 1014.0
20260905160400 32 270 22.5 0.0 0.00 0.00 0.00 27 1014.0
20260905154910 32 270 22.5 0.0 0.00 0.00 0.00 27 1014.0
20260905153359 32 270 22.5 0.0 0.00 0.00 0.00 27 1014.0
20260905151900 32 270 22.5 0.0 0.00 0.00 0.00 27 1014.0
20260905150400 32 270 22.5 0.0 0.00 0.00 0.00 27 1014.0
20260905144853 32 270 25.7 0.0 0.00 0.00 0.00 24 1014.0
20260905143359 32 270 25.7 0.0 0.00 0.00 0.00 24 1014.0
20260905141857 32 270 25.7 0.0 0.00 0.00 0.00 24 1014.0
20260905140356 32 270 25.7 0.0 0.00 0.00 0.00 24 1014.0
20260905135020 -17 0.0 0.0 0.00 0.00 0.00
20260905133400 32 270 17.7 37.0 0.00 0.00 0.00 24 1014.0
20260905131902 32 270 17.7 37.0 0.00 0.00 0.00 24 1014.0
20260905130421 32 270 17.7 37.0 0.00 0.00 0.00 24 1014.0
20260905124854 32 270 25.7 0.0 0.00 0.00 0.00 26 1015.0
20260905123400 32 270 25.7 0.0 0.00 0.00 0.00 26 1015.0
20260905121927 32 270 25.7 0.0 0.00 0.00 0.00 26 1015.0
20260905120401 32 270 25.7 0.0 0.00 0.00 0.00 26 1015.0
20260905114900 31 270 25.7 0.0 0.00 0.00 0.00 29 1016.0
20260905113400 31 270 25.7 0.0 0.00 0.00 0.00 29 1016.0
20260905111918 31 270 25.7 0.0 0.00 0.00 0.00 29 1016.0
20260905110359 31 270 25.7 0.0 0.00 0.00 0.00 29 1016.0
20260905104900 31 270 25.7 0.0 0.00 0.00 0.00 29 1016.0
20260905103400 31 270 25.7 0.0 0.00 0.00 0.00 29 1016.0
20260905101859 31 270 25.7 0.0 0.00 0.00 0.00 29 1016.0
20260905100400 31 270 25.7 0.0 0.00 0.00 0.00 29 1016.0
20260905095022 -17 0.0 0.0 0.00 0.00 0.00
20260905093359 28 250 22.5 0.0 0.00 0.00 0.00 35 1017.0
20260905091900 28 250 22.5 0.0 0.00 0.00 0.00 35 1017.0
20260905090400 28 250 22.5 0.0 0.00 0.00 0.00 35 1017.0
20260905084859 27 250 22.5 0.0 0.00 0.00 0.00 39 1017.0
20260905083400 27 250 22.5 0.0 0.00 0.00 0.00 39 1017.0
20260905081859 27 250 22.5 0.0 0.00 0.00 0.00 39 1017.0
20260905080400 27 250 22.5 0.0 0.00 0.00 0.00 39 1017.0
20260905074859 -17 0.0 0.0 0.00 0.00 0.00
20260905073408 -17 0.0 0.0 0.00 0.00 0.00
20260905071900 -17 0.0 0.0 0.00 0.00 0.00
20260905070400 -17 0.0 0.0 0.00 0.00 0.00
20260905064901 -17 0.0 0.0 0.00 0.00 0.00
20260905063401 -17 0.0 0.0 0.00 0.00 0.00
20260905061900 -17 0.0 0.0 0.00 0.00 0.00
20260905060401 -17 0.0 0.0 0.00 0.00 0.00
20260905054900 18 230 11.3 0.0 0.00 0.00 0.00 73 1016.0
20260905053400 18 230 11.3 0.0 0.00 0.00 0.00 73 1016.0
20260905051859 18 230 11.3 0.0 0.00 0.00 0.00 73 1016.0
20260905050400 18 230 11.3 0.0 0.00 0.00 0.00 73 1016.0
20260905044901 15 210 9.7 0.0 0.00 0.00 0.00 88 1016.0
20260905043359 15 210 9.7 0.0 0.00 0.00 0.00 88 1016.0
20260905041900 15 210 9.7 0.0 0.00 0.00 0.00 88 1016.0
20260905040359 15 210 9.7 0.0 0.00 0.00 0.00 88 1016.0
20260905034901 13 180 9.7 0.0 0.00 0.00 0.00 88 1016.0
20260905033359 13 180 9.7 0.0 0.00 0.00 0.00 88 1016.0
20260905031900 13 180 9.7 0.0 0.00 0.00 0.00 88 1016.0
20260905030400 13 180 9.7 0.0 0.00 0.00 0.00 88 1016.0
20260905024913 17 210 11.3 0.0 0.00 0.00 0.00 94 1016.0
20260905023400 17 210 11.3 0.0 0.00 0.00 0.00 94 1016.0
20260905021900 17 210 11.3 0.0 0.00 0.00 0.00 94 1016.0
20260905020401 17 210 11.3 0.0 0.00 0.00 0.00 94 1016.0
20260905014900 17 210 11.3 0.0 0.00 0.00 0.00 94 1016.0
20260905013359 17 210 11.3 0.0 0.00 0.00 0.00 88 1016.0
20260905011900 17 210 11.3 0.0 0.00 0.00 0.00 88 1016.0
20260905010400 17 210 11.3 0.0 0.00 0.00 0.00 88 1016.0
20260905004900 17 210 11.3 0.0 0.00 0.00 0.00 88 1016.0
20260905003400 17 220 11.3 0.0 0.00 0.00 0.00 83 1017.0
20260905001900 17 220 11.3 0.0 0.00 0.00 0.00 83 1017.0
20260905000402 -17 0.0 0.0 0.00 0.00 0.00
20260904234900 -17 0.0 0.0 0.00 0.00 0.00
20260904233400 -17 0.0 0.0 0.00 0.00 0.00
20260904231902 -17 0.0 0.0 0.00 0.00 0.00
20260904230400 -17 0.0 0.0 0.00 0.00 0.00
20260904224902 18 200 12.9 0.0 0.00 0.00 0.00 78 1017.0
20260904223400 18 200 12.9 0.0 0.00 0.00 0.00 78 1017.0
20260904221901 18 200 12.9 0.0 0.00 0.00 0.00 78 1017.0
20260904220400 18 200 12.9 0.0 0.00 0.00 0.00 78 1017.0
20260904214901 18 200 12.9 0.0 0.00 0.00 0.00 78 1017.0
20260904213359 20 200 12.9 0.0 0.00 0.00 0.00 69 1017.0
20260904211900 20 200 12.9 0.0 0.00 0.00 0.00 69 1017.0
20260904210359 20 200 12.9 0.0 0.00 0.00 0.00 69 1017.0
20260904204901 20 200 12.9 0.0 0.00 0.00 0.00 69 1017.0
20260904203400 21 180 12.9 0.0 0.00 0.00 0.00 60 1016.0